International Virtual Aviation Organisation

Russian Federation and Kazakhstan MCD

 

Карточка аэропорта UHBB

Внимание!
Информация на этой странице в стадии наполнения.
Если вы не увидели какой-то информации, или заметили неточность - пожалуйста сообщите нам!
Спасибо!
Команда RU-STAFF
Название аэропортаИгнатьево
Название аэропорта (англ.)Ignatyevo
Превышение640 ft. (195.1 m.)
Координаты50°25.536', 127°24.72'
Высота перехода900m
Эшелон переходаFL050
Коды ответчика1601-1617
Зона ОрВДХабаровск РПИ (UHHH)
Данные METARUHBB 302100Z 13001MPS 6000 NSC M01/M04 Q1012 R36/090060 NOSIG RMK QFE741/0988
Проноз погоды (TAF)UHBB 301952Z 3021/3121 15003MPS 9999 SCT030 TEMPO 3021/3023 3100 HZ SCT011 SCT030 FM302300 09003G08MPS 9999 BKN020CB BECMG 3109/3112 3100 -SHRA BKN011 BKN015CB BECMG 3113/3115 04003MPS TEMPO 3118/3121 0500 +SHSN VV003
NOTAMshow/hide NOTAM
AWOS   TABLE

Информация о ВПП

ВПП Длина ВПП (м.) Покрытие Курс ВПП Частота ILS
182800Асфальтобетон180 
362800Асфальтобетон360108.7

Диспетчерские позиции

Позывной Наименование органа УВД Частота
UHBB_TWRБлаговещенск-Вышка127.2



Спутниковое изображение